Regional Weather Roundup
Issued by NWS

Home | Current Version | Previous Version | Text Only | Print | Product List | Glossary Off
Versions: 1 2 3 4 5 6 7 8 9 10 11 12 13 14 15 16 17 18 19 20 21 22 23 24 25 26 27 28 29 30 31 32 33 34 35 36 37 38 39 40 41 42 43 44 45 46 47 48 49 50

000
ASUS43 KOAX 030510
RWRNE

WEATHER ROUNDUP FOR NEBRASKA
NATIONAL WEATHER SERVICE OMAHA NE
1200 AM CDT WED JUN 03 2015

NOTES: SATELLITE DATA IS BEING USED TO AUGMENT CLOUD COVER ABOVE
       12000 FEET.
       "FAIR" INDICATES FEW OR NO CLOUDS BELOW 12,000 FEET WITH NO
       SIGNIFICANT WEATHER AND/OR OBSTRUCTIONS TO VISIBILITY.

  * THESE STATIONS DO NOT REPORT WEATHER SUCH AS RAIN...SNOW OR FOG.

NEZ001>004-019>022-054>056-030600-
NEBRASKA PANHANDLE

CITY           SKY/WX    TMP DP  RH WIND       PRES   REMARKS
SCOTTSBLUFF    PTCLDY    62  51  67 E3        29.89R
ALLIANCE       PTCLDY    60  54  80 N8        29.89R
CHADRON        PTCLDY    60  55  83 N14G23    29.92R
KIMBALL          N/A    N/A N/A N/A MISG        N/A
SIDNEY         PTCLDY    64  57  78 NE10      29.87R
$$

NEZ057>060-069>072-079>082-030600-
SOUTHWEST NEBRASKA

CITY           SKY/WX    TMP DP  RH WIND       PRES   REMARKS
NORTH PLATTE   CLOUDY    72  55  55 N28G37    29.86R
IMPERIAL       CLEAR     70  64  81 SE10      29.79R
LEXINGTON      CLOUDY    72  66  80 E9        29.81S
MCCOOK         CLEAR     72  65  78 E6        29.77R
OGALLALA       CLOUDY    72  65  79 NE9       29.82S
$$

NEZ005>010-023>029-035>040-094-030600-
NORTH CENTRAL NEBRASKA

CITY           SKY/WX    TMP DP  RH WIND       PRES   REMARKS
VALENTINE      CLOUDY    65  55  70 NE21G36   29.75F
AINSWORTH      CLOUDY    62  58  87 N31G43    29.83F
BROKEN BOW     CLOUDY    73  65  75 SE7       29.85R
O`NEILL        CLOUDY    73  66  80 S10G17    29.83S
ORD            CLOUDY    73  65  75 SE10      29.82R
THEDFORD       CLOUDY    60  58  92 E6        29.92S
$$

NEZ041-046>049-061>064-073>077-083>087-030600-
SOUTH CENTRAL NEBRASKA

CITY           SKY/WX    TMP DP  RH WIND       PRES   REMARKS
GRAND ISLAND   MOCLDY    72  65  78 SE14G21   29.84S
AURORA         PTCLDY    69  66  90 SE15      29.86S
HASTINGS       PTCLDY    72  66  81 SE16      29.84R
HEBRON         CLEAR     71  65  82 SE13      29.85S
HOLDREGE       PTCLDY    72  65  78 SE13      29.81S
KEARNEY *      MOCLDY    72  64  78 SE12      29.83S
YORK           PTCLDY    68  64  88 SE16      29.86S
$$

NEZ011>018-030>034-042>045-030600-
NORTHEAST NEBRASKA

CITY           SKY/WX    TMP DP  RH WIND       PRES   REMARKS
NORFOLK        PTCLDY    66  61  84 SE13      29.86S
ALBION         PTCLDY    68  62  80 SE10G17   29.86R
BLAIR          CLEAR     65  57  74 SE12      29.90R
COLUMBUS *     CLEAR     66  59  77 SE8       29.88S
FREMONT        CLEAR     66  59  78 SE10      29.90R
TEKAMAH        PTCLDY    65  58  78 SE15      29.90R
WAYNE          MOCLDY    65  61  85 S17       29.87S
$$

NEZ050>053-065>068-078-088>093-030600-
SOUTHEAST NEBRASKA

CITY           SKY/WX    TMP DP  RH WIND       PRES   REMARKS
LINCOLN        CLEAR     68  61  78 SE10      29.88S
OMAHA EPPLEY   CLEAR     65  58  78 SE14      29.91S
BEATRICE       CLEAR     68  63  82 SE13G22   29.88R
FALLS CITY     PTCLDY    67  58  72 SE13      29.90F
NEBRASKA CITY  CLEAR     63  58  83 SE9       29.91S
PLATTSMOUTH    CLEAR     64  58  79 SE13      29.90F
$$

NEZ044-045-051>053-067-030600-
OMAHA AREA

CITY           SKY/WX    TMP DP  RH WIND       PRES   REMARKS
OMAHA EPPLEY   CLEAR     65  58  78 SE14      29.91S
BLAIR          CLEAR     65  57  74 SE12      29.90R
FREMONT        CLEAR     66  59  78 SE10      29.90R
MILLARD        CLEAR     66  59  78 SE10G16   29.90R
OFFUTT AFB     CLEAR     63  58  83 E7        29.90S
PLATTSMOUTH    CLEAR     64  58  79 SE13      29.90F
WAHOO          FAIR      64  60  87 SE10      29.90R
$$



USA.gov is the U.S. government's official web portal to all federal, state and local government web resources and services.